Location: Newark
(42.7133°N, 87.7910°W)
Time: 19:50:40
(UTC+00:00)

Vanguard 1 - Pass Details

Date: 24 September 2019
Orbit: 653 x 3830 km, 34.2° (Epoch: 20 October)

Event Time Altitude Azimuth Distance (km) Brightness Sun altitude
Rises 10:24:16 0° 269° (W) 7,967 - -14.7°
Reaches altitude 10° 10:29:53 10° 267° (W) 6,917 - -13.7°
Exits shadow 10:32:05 14° 266° (W) 6,495 13.6 -13.3°
Maximum altitude 10:51:50 62° 194° (SSW) 3,293 12.6 -9.7°
Drops below altitude 10° 11:05:29 10° 118° (ESE) 4,554 14.4 -7.2°
Sets 11:08:20 0° 115° (ESE) 5,218 15.0 -6.7°
